Change the Weather History Date:

Saturday, October 12, 2013

  Actual Average (KARA) Record (KARA)
Temperature  
Mean Temperature 78 °F 71 °F  
Max Temperature 89 °F 82 °F 89 °F (1997)
Min Temperature 66 °F 60 °F 41 °F (1952)
Degree Days  
Heating Degree Days 0 1  
Month to date heating degree days 1  
Since 1 July heating degree days 2  
Cooling Degree Days 12 7  
Month to date cooling degree days 98  
Year to date cooling degree days 2654  
Growing Degree Days 28 (Base 50)    
Moisture  
Dew Point 71 °F    
Average Humidity 87    
Maximum Humidity 100    
Minimum Humidity 44    
Precipitation  
Precipitation 0.00 in 0.18 in 1.90 in (2009)
Month to date precipitation 2.37  
Year to date precipitation 47.85  
Sea Level Pressure  
Sea Level Pressure 30.03 in    
Wind  
Wind Speed 2 mph (SSE)    
Max Wind Speed 12 mph    
Max Gust Speed 16 mph    
Visibility 6 miles    
Events Fog , Rain , Thunderstorm    
T = Trace of Precipitation, MM = Missing Value Source: NWS Daily Summary

Daily Weather History Graph

Daily Weather History Graph

Search for Another Location

Airport or City:

Trip Planner

Search our weather history database for the weather conditions in past years. The results will help you decide how hot, cold, wet, or windy it might be!

Date:

Astronomy

Oct. 12, 2013 Rise Set
Actual Time 7:08 AM CDT 6:40 PM CDT
Civil Twilight 6:44 AM CDT 7:04 PM CDT
Nautical Twilight 6:16 AM CDT 7:32 PM CDT
Astronomical Twilight 5:48 AM CDT 7:59 PM CDT
Moon 2:25 PM CDT (10/12) 12:39 AM CDT (10/12)
Length of Visible Light 12h 20m
Length of Day
11h 32m
First Quarter, 59% of the Moon is Illuminated
Oct 12
First Quarter
Oct 18
Full
Oct 26
Last Quarter
Nov 3
New
Nov 9
First Quarter

Hourly Weather History & Observations

Time (CDT) Temp. Heat Index Dew Point Humidity Pressure Visibility Wind Dir Wind Speed Gust Speed Precip Events Conditions
12:15 AM 70.7 °F - 70.7 °F 100% 29.98 in 1.2 mi Calm Calm - N/A   Mist
12:35 AM 70.3 °F - 70.3 °F 100% 29.98 in 0.5 mi Calm Calm - N/A Fog Fog
12:55 AM 71.1 °F - 71.1 °F 100% 29.98 in 1.5 mi Calm Calm - N/A   Scattered Clouds
1:15 AM 70.7 °F - 70.7 °F 100% 29.98 in 0.5 mi Calm Calm - N/A Fog Fog
1:35 AM 71.6 °F - 71.6 °F 100% 29.98 in 4.0 mi East 4.6 mph - N/A   Scattered Clouds
1:55 AM 72.3 °F - 72.3 °F 100% 29.98 in 10.0 mi East 3.5 mph - N/A   Clear
2:15 AM 71.6 °F - 71.6 °F 100% 29.98 in 7.0 mi East 3.5 mph - N/A   Scattered Clouds
2:35 AM 71.6 °F - 71.6 °F 100% 29.98 in 7.0 mi East 3.5 mph - N/A   Scattered Clouds
2:55 AM 71.6 °F - 71.6 °F 100% 29.98 in 10.0 mi ESE 3.5 mph - N/A   Clear
3:15 AM 70.9 °F - 70.9 °F 100% 29.98 in 7.0 mi Calm Calm - N/A   Clear
3:35 AM 69.4 °F - 69.4 °F 100% 29.98 in 0.5 mi Calm Calm - N/A Fog Fog
3:55 AM 69.8 °F - 69.8 °F 100% 29.98 in 0.2 mi Calm Calm - N/A Fog Fog
4:15 AM 68.9 °F - 68.9 °F 100% 29.98 in 0.2 mi Calm Calm - N/A Fog Fog
4:35 AM 67.5 °F - 67.5 °F 100% 29.98 in 0.2 mi Calm Calm - N/A Fog Fog
4:55 AM 67.6 °F - 67.6 °F 100% 29.98 in 0.5 mi Calm Calm - N/A Fog Fog
5:15 AM 66.6 °F - 66.6 °F 100% 29.99 in 0.2 mi Calm Calm - N/A Fog Fog
5:35 AM 67.1 °F - 67.1 °F 100% 30.00 in 0.2 mi Calm Calm - N/A Fog Fog
5:55 AM 66.2 °F - 66.2 °F 100% 30.00 in 0.2 mi Calm Calm - N/A Fog Fog
6:15 AM 67.1 °F - 67.1 °F 100% 30.01 in 0.2 mi Calm Calm - N/A Fog Fog
6:35 AM 66.6 °F - 66.6 °F 100% 30.02 in 0.5 mi Calm Calm - N/A Fog Fog
6:55 AM 66.6 °F - 66.6 °F 100% 30.02 in 0.5 mi Calm Calm - N/A Fog Fog
7:15 AM 67.6 °F - 67.6 °F 100% 30.02 in 1.5 mi Calm Calm - N/A   Mist
7:35 AM 69.1 °F - 69.1 °F 100% 30.03 in 1.2 mi Calm Calm - N/A   Overcast
7:55 AM 70.7 °F - 70.7 °F 100% 30.03 in 0.2 mi Calm Calm - N/A Fog Fog
8:15 AM 72.1 °F - 72.1 °F 100% 30.04 in 0.5 mi Calm Calm - N/A Fog Fog
8:35 AM 73.2 °F - 73.2 °F 100% 30.05 in 0.2 mi Calm Calm - N/A Fog Fog
8:55 AM 74.7 °F - 74.7 °F 100% 30.05 in 1.5 mi Calm Calm - N/A   Mostly Cloudy
9:15 AM 76.5 °F - 76.5 °F 100% 30.06 in 10.0 mi Calm Calm - N/A   Overcast
9:35 AM 78.3 °F - 78.3 °F 100% 30.06 in 10.0 mi Calm Calm - N/A   Scattered Clouds
9:55 AM - - - N/A% 30.06 in 10.0 mi Calm Calm - N/A   Clear
10:15 AM 79.7 °F - 79.7 °F 100% 30.06 in 10.0 mi SSE 4.6 mph - N/A   Clear
10:35 AM 80.4 °F 88.7 °F 80.4 °F 100% 30.06 in 10.0 mi SSE 3.5 mph - N/A   Scattered Clouds
10:55 AM 83.7 °F 92.0 °F 75.9 °F 77% 30.06 in 10.0 mi Calm Calm - N/A   Mostly Cloudy
11:15 AM 85.5 °F 89.8 °F 69.8 °F 59% 30.07 in 10.0 mi South 5.8 mph - N/A   Overcast
11:35 AM 85.8 °F 88.8 °F 67.5 °F 54% 30.06 in 10.0 mi SW 3.5 mph - N/A   Overcast
11:55 AM 88.7 °F 92.2 °F 68.0 °F 50% 30.06 in 10.0 mi SSW 4.6 mph - N/A   Mostly Cloudy
12:15 PM 86.5 °F 89.3 °F 67.1 °F 52% 30.05 in 10.0 mi Calm Calm - N/A   Overcast
12:35 PM 89.2 °F 90.9 °F 64.9 °F 44% 30.04 in 10.0 mi Calm Calm - N/A   Mostly Cloudy
12:55 PM 87.4 °F 88.8 °F 64.0 °F 46% 30.03 in 10.0 mi Calm Calm - N/A   Mostly Cloudy
1:15 PM 83.5 °F 85.5 °F 65.8 °F 55% 30.03 in 10.0 mi SSW 4.6 mph 9.2 mph N/A   Overcast
1:35 PM 82.2 °F 83.8 °F 64.4 °F 55% 30.02 in 10.0 mi SSE 11.5 mph - N/A   Overcast
1:55 PM 83.7 °F 85.3 °F 65.1 °F 53% 30.02 in 10.0 mi SSE 4.6 mph - N/A   Overcast
2:15 PM 79.7 °F - 66.7 °F 64% 30.01 in 5.0 mi Calm Calm - N/A Rain Light Rain
2:35 PM 79.9 °F - 72.1 °F 77% 30.01 in 10.0 mi SW 6.9 mph - N/A Rain Light Rain
2:55 PM 77.9 °F - 75.6 °F 92% 30.01 in 7.0 mi SSW 8.1 mph - N/A Rain Rain
3:15 PM 78.6 °F - 78.1 °F 98% 30.00 in 10.0 mi South 8.1 mph - N/A   Overcast
3:35 PM 82.0 °F 87.9 °F 73.9 °F 76% 29.98 in 10.0 mi South 4.6 mph - N/A   Overcast
3:55 PM 83.5 °F 87.2 °F 69.3 °F 62% 29.99 in 10.0 mi South 4.6 mph - N/A   Mostly Cloudy
4:15 PM 84.0 °F 87.0 °F 67.6 °F 58% 29.99 in 10.0 mi SSE 4.6 mph - N/A   Clear
4:35 PM 82.2 °F 84.0 °F 65.3 °F 56% 29.99 in 10.0 mi South 5.8 mph - N/A   Clear
4:55 PM 81.7 °F 84.2 °F 66.9 °F 61% 29.98 in 10.0 mi South 4.6 mph - N/A   Clear
5:15 PM 82.4 °F 84.4 °F 66.0 °F 57% 29.99 in 10.0 mi SSE 4.6 mph - N/A   Clear
5:35 PM 83.5 °F 85.3 °F 65.5 °F 54% 29.99 in 10.0 mi South 3.5 mph - N/A   Clear
5:55 PM 81.7 °F 84.2 °F 67.1 °F 61% 30.00 in 10.0 mi South 3.5 mph - N/A   Clear
6:15 PM 80.4 °F 83.6 °F 69.8 °F 70% 30.01 in 10.0 mi SE 3.5 mph - N/A   Clear
6:35 PM 79.7 °F - 73.9 °F 82% 30.02 in 10.0 mi SSE 3.5 mph - N/A   Clear
6:55 PM 79.5 °F - 78.8 °F 98% 30.03 in 10.0 mi South 4.6 mph - N/A   Mostly Cloudy
7:15 PM 79.7 °F - 79.7 °F 100% 30.03 in 10.0 mi South 3.5 mph - N/A Rain Light Rain
7:35 PM 79.7 °F - 79.7 °F 100% 30.04 in 10.0 mi South 4.6 mph - N/A   Overcast
7:55 PM 79.7 °F - 79.7 °F 100% 30.04 in 10.0 mi SSW 5.8 mph - N/A   Overcast
8:15 PM 79.3 °F - 79.3 °F 100% 30.05 in 10.0 mi Calm Calm - N/A   Mostly Cloudy
8:35 PM 79.2 °F - 79.2 °F 100% 30.07 in 10.0 mi Calm Calm - N/A   Mostly Cloudy
8:55 PM 79.2 °F - 79.2 °F 100% 30.07 in 10.0 mi SSW 3.5 mph - N/A   Overcast
9:15 PM 79.2 °F - 79.2 °F 100% 30.07 in 10.0 mi Calm Calm - N/A   Overcast
9:35 PM 73.9 °F - 72.1 °F 94% 30.08 in 10.0 mi NNW 10.4 mph 16.1 mph N/A Thunderstorm Overcast
9:55 PM 72.9 °F - 72.9 °F 100% 30.08 in 10.0 mi North 8.1 mph - N/A Rain Heavy Rain
10:15 PM 74.3 °F - 74.3 °F 100% 30.10 in 2.0 mi North 10.4 mph - N/A Rain Heavy Rain
10:35 PM 74.5 °F - 74.5 °F 100% 30.11 in 1.5 mi NNE 6.9 mph - N/A Rain Heavy Rain
10:55 PM 73.9 °F - 73.9 °F 100% 30.11 in 4.0 mi NE 11.5 mph - N/A Rain Light Rain
11:15 PM 72.5 °F - 72.5 °F 100% 30.11 in 4.0 mi East 5.8 mph - N/A Rain Rain
11:35 PM 71.8 °F - 71.8 °F 100% 30.11 in 7.0 mi East 8.1 mph - N/A Rain Rain
11:55 PM 71.1 °F - 71.1 °F 100% 30.10 in 10.0 mi SSE 3.5 mph - N/A   Light Drizzle